Location: Zagreb
(45.8000°N, 16.0000°E)
Time: 12:30:38
(UTC+02:00)

Envisat - Pass Details

Date: 25 January 2022
Orbit: 764 x 765 km, 98.2° (Epoch: 22 May)

Event Time Altitude Azimuth Distance (km) Brightness Sun altitude
Rises 17:11:39 0° 209° (SSW) 3,217 7.2 -4.0°
Reaches altitude 10° 17:14:42 10° 228° (SW) 2,296 6.9 -4.5°
Maximum altitude 17:18:03 18° 270° (W) 1,834 6.2 -5.0°
Drops below altitude 10° 17:21:24 10° 312° (NW) 2,308 5.9 -5.6°
Sets 17:24:30 0° 331° (NNW) 3,239 6.3 -6.1°
